EW3966 Weather Reports


Display with metric or nautical units.
time (UTC)temp
F
wind
direction
speed
MPH
gust
MPH
rain 1hr
in
rain 24hr
in
rain mn
in
humidity
%
barometer
mb
20260901205039 57 13 4.0 12.0 0.00 0.00 0.00 84 1016.4
20260901204538 57 28 4.0 9.0 0.00 0.00 0.00 84 1016.3
20260901203539 57 11 4.0 9.0 0.00 0.00 0.00 86 1016.3
20260901203044 57 24 1.0 6.0 0.00 0.00 0.00 87 1016.3
20260901202538 57 36 0.0 7.0 0.00 0.00 0.00 86 1016.2
20260901202038 57 16 4.0 12.0 0.00 0.00 0.00 85 1016.2
20260901201537 58 26 6.0 12.0 0.00 0.00 0.00 84 1016.3
20260901201037 58 40 4.0 12.0 0.00 0.00 0.00 83 1016.2
20260901200536 58 35 4.0 15.0 0.00 0.00 0.00 82 1016.2
20260901200049 59 323 6.0 15.0 0.00 0.00 0.00 82 1016.1
20260901195539 59 43 5.0 9.0 0.00 0.00 0.00 82 1016.0
20260901195038 59 1 3.0 11.0 0.00 0.00 0.00 80 1016.0
20260901194534 59 331 4.0 12.0 0.00 0.00 0.00 79 1015.8
20260901193533 59 64 2.0 11.0 0.00 0.00 0.00 80 1015.8
20260901193042 59 51 5.0 11.0 0.00 0.00 0.00 80 1015.7
20260901192536 59 335 3.0 8.0 0.00 0.00 0.00 81 1015.6
20260901192035 59 20 2.0 8.0 0.00 0.00 0.00 81 1015.6
20260901191533 59 10 2.0 11.0 0.00 0.00 0.00 82 1015.5
20260901191031 59 72 2.0 11.0 0.00 0.00 0.00 82 1015.5
20260901190533 59 281 3.0 11.0 0.00 0.00 0.00 83 1015.6
20260901190030 59 54 4.0 10.0 0.00 0.00 0.00 83 1015.5
20260901185530 58 349 2.0 13.0 0.00 0.00 0.00 84 1015.4
20260901185033 58 328 6.0 13.0 0.00 0.00 0.00 84 1015.4
20260901184533 59 33 5.0 13.0 0.00 0.00 0.00 84 1015.4
20260901183530 59 353 4.0 12.0 0.00 0.00 0.00 84 1015.2
20260901183028 59 17 5.0 12.0 0.00 0.00 0.00 84 1015.2
20260901182528 59 340 6.0 12.0 0.00 0.00 0.00 83 1015.1
20260901182027 60 18 4.0 10.0 0.00 0.00 0.00 83 1015.0
20260901181526 60 319 5.0 11.0 0.00 0.00 0.00 83 1015.0
20260901181026 60 33 4.0 11.0 0.00 0.00 0.00 83 1014.9
20260901180525 60 20 4.0 10.0 0.00 0.00 0.00 83 1014.9
20260901180026 60 6 5.0 10.0 0.00 0.00 0.00 81 1014.8
20260901175524 60 295 4.0 9.0 0.00 0.00 0.00 82 1014.7
20260901175025 59 284 3.0 12.0 0.00 0.00 0.00 83 1014.6
20260901174524 59 340 5.0 12.0 0.00 0.00 0.00 83 1014.7
20260901173527 58 1 1.0 11.0 0.00 0.00 0.00 87 1014.6
20260901173025 58 5 5.0 11.0 0.00 0.00 0.00 87 1014.6
20260901172525 58 29 0.0 7.0 0.00 0.00 0.00 88 1014.5
20260901172026 57 340 0.0 6.0 0.00 0.00 0.00 88 1014.6
20260901171528 57 46 2.0 7.0 0.00 0.00 0.00 87 1014.6
20260901171024 58 10 2.0 7.0 0.00 0.00 0.00 87 1014.6
20260901170524 58 47 1.0 11.0 0.00 0.00 0.00 86 1014.5
20260901170024 59 328 4.0 12.0 0.00 0.00 0.00 84 1014.5
20260901165524 61 39 6.0 13.0 0.00 0.00 0.00 81 1014.5
20260901165023 61 3 8.0 13.0 0.00 0.00 0.00 80 1014.4
20260901164523 61 229 2.0 10.0 0.00 0.00 0.00 80 1014.4
20260901163521 61 340 2.0 10.0 0.00 0.00 0.00 79 1014.3
20260901163021 61 286 4.0 11.0 0.00 0.00 0.00 79 1014.3
20260901162521 60 180 3.0 11.0 0.00 0.00 0.00 81 1014.3
20260901162021 60 133 2.0 12.0 0.00 0.00 0.00 79 1014.2
20260901161519 61 71 5.0 14.0 0.00 0.00 0.00 78 1014.2
20260901161019 62 49 5.0 13.0 0.00 0.00 0.00 78 1014.2
20260901160518 62 20 3.0 10.0 0.00 0.00 0.00 78 1014.1
20260901160022 62 27 3.0 10.0 0.00 0.00 0.00 78 1014.1
20260901155518 62 85 3.0 12.0 0.00 0.00 0.00 76 1014.1
20260901155018 63 243 4.0 12.0 0.00 0.00 0.00 74 1014.0
20260901154518 63 72 5.0 14.0 0.00 0.00 0.00 74 1013.9
20260901153518 62 287 5.0 14.0 0.00 0.00 0.00 77 1013.9
20260901153020 62 246 7.0 14.0 0.00 0.00 0.00 77 1013.9
20260901152513 61 81 3.0 12.0 0.00 0.00 0.00 79 1013.9
20260901152012 60 37 5.0 13.0 0.00 0.00 0.00 81 1013.8
20260901151516 60 22 5.0 13.0 0.00 0.00 0.00 80 1013.8
20260901151013 60 314 5.0 9.0 0.00 0.00 0.00 81 1013.8
20260901150512 60 6 4.0 10.0 0.00 0.00 0.00 83 1013.9
20260901150011 60 49 4.0 10.0 0.00 0.00 0.00 85 1013.7
20260901145510 60 357 1.0 9.0 0.00 0.00 0.00 86 1013.6
20260901145010 59 345 4.0 9.0 0.00 0.00 0.00 86 1013.6
20260901144510 59 17 2.0 9.0 0.00 0.00 0.00 86 1013.6
20260901143510 60 297 4.0 9.0 0.00 0.00 0.00 84 1013.7
20260901143009 60 276 2.0 13.0 0.00 0.00 0.00 83 1013.6
20260901142509 60 232 7.0 11.0 0.00 0.00 0.00 83 1013.5
20260901142013 59 276 4.0 10.0 0.00 0.00 0.00 84 1013.5
20260901141508 59 33 5.0 12.0 0.00 0.00 0.00 85 1013.4
20260901141012 59 335 3.0 12.0 0.00 0.00 0.00 84 1013.4
20260901140507 59 316 5.0 10.0 0.00 0.00 0.00 84 1013.5
20260901140013 60 307 4.0 16.0 0.00 0.00 0.00 83 1013.4
20260901135508 60 230 8.0 16.0 0.00 0.00 0.00 82 1013.4
20260901135006 59 288 3.0 14.0 0.00 0.00 0.00 85 1013.3
20260901134507 58 222 2.0 14.0 0.00 0.00 0.00 85 1013.3
20260901133506 59 322 4.0 10.0 0.00 0.00 0.00 83 1013.3
20260901133004 59 203 3.0 10.0 0.00 0.00 0.00 82 1013.2
20260901132504 59 335 1.0 9.0 0.00 0.00 0.00 83 1013.0
20260901132005 59 241 5.0 10.0 0.00 0.00 0.00 84 1012.9
20260901131515 58 281 1.0 10.0 0.00 0.00 0.00 86 1013.0
20260901131005 57 235 2.0 10.0 0.00 0.00 0.00 88 1013.0
20260901130503 57 271 3.0 10.0 0.00 0.00 0.00 88 1012.9
20260901130002 56 224 3.0 13.0 0.00 0.00 0.00 88 1012.9
20260901125501 56 261 5.0 13.0 0.00 0.00 0.00 86 1012.9
20260901125002 57 289 6.0 12.0 0.00 0.00 0.00 84 1012.9
20260901124601 58 310 6.0 12.0 0.00 0.00 0.00 82 1012.7
20260901123600 58 345 3.0 11.0 0.00 0.00 0.00 81 1012.4
20260901123105 59 218 5.0 13.0 0.00 0.00 0.00 80 1012.4
20260901122559 59 227 6.0 13.0 0.00 0.00 0.00 80 1012.4
20260901122058 59 264 4.0 10.0 0.00 0.00 0.00 80 1012.3
20260901121557 58 278 2.0 10.0 0.00 0.00 0.00 80 1012.3
20260901121056 58 244 4.0 10.0 0.00 0.00 0.00 81 1012.2
20260901120556 58 259 3.0 11.0 0.00 0.00 0.00 81 1012.2
20260901120054 58 266 6.0 11.0 0.00 0.00 0.00 80 1012.0
20260901115554 58 273 5.0 10.0 0.00 0.00 0.00 79 1011.9
20260901115054 59 288 4.0 10.0 0.00 0.00 0.00 79 1011.8
20260901114553 59 299 4.0 11.0 0.00 0.00 0.00 80 1011.9
20260901113552 58 245 3.0 9.0 0.00 0.00 0.00 81 1011.8
20260901113053 58 256 4.0 10.0 0.00 0.00 0.00 81 1011.8
20260901112553 57 275 3.0 10.0 0.00 0.00 0.00 81 1011.7
20260901112050 57 303 4.0 12.0 0.00 0.00 0.00 81 1011.7
20260901111552 57 248 6.0 13.0 0.00 0.00 0.00 82 1011.6
20260901111051 57 274 6.0 13.0 0.00 0.00 0.00 82 1011.6
20260901110549 56 255 4.0 10.0 0.00 0.00 0.00 83 1011.6
20260901110056 56 237 3.0 10.0 0.00 0.00 0.00 84 1011.5
20260901105549 56 244 4.0 10.0 0.00 0.00 0.00 84 1011.5
20260901105053 56 282 4.0 10.0 0.00 0.00 0.00 84 1011.4
20260901104549 56 270 4.0 10.0 0.00 0.00 0.00 84 1011.3
20260901103548 56 226 5.0 11.0 0.00 0.00 0.00 84 1011.1
20260901103049 56 264 5.0 11.0 0.00 0.00 0.00 84 1011.1
20260901102547 55 293 3.0 9.0 0.00 0.00 0.00 84 1011.1
20260901102048 55 253 4.0 9.0 0.00 0.00 0.00 84 1011.1
20260901101547 55 243 2.0 9.0 0.00 0.00 0.00 85 1011.1
20260901101047 55 257 3.0 8.0 0.00 0.00 0.00 85 1011.0
20260901100546 55 225 4.0 13.0 0.00 0.00 0.00 85 1010.9
20260901100044 55 266 3.0 13.0 0.00 0.00 0.00 85 1010.8
20260901095544 55 279 2.0 10.0 0.00 0.00 0.00 85 1010.8
20260901095043 55 265 3.0 10.0 0.00 0.00 0.00 85 1010.7
20260901094544 55 234 3.0 13.0 0.00 0.00 0.00 86 1010.7
20260901093541 55 230 4.0 9.0 0.00 0.00 0.00 86 1010.5
20260901093041 55 236 3.0 8.0 0.00 0.00 0.00 86 1010.4
20260901092543 55 268 2.0 8.0 0.00 0.00 0.00 86 1010.3
20260901092039 54 259 3.0 9.0 0.00 0.00 0.00 87 1010.3
20260901091538 54 234 2.0 8.0 0.00 0.00 0.00 87 1010.3
20260901091041 54 268 3.0 10.0 0.00 0.00 0.00 87 1010.2
20260901090537 54 253 5.0 10.0 0.00 0.00 0.00 88 1010.0
20260901090036 54 255 2.0 11.0 0.00 0.00 0.00 88 1010.0
20260901085535 53 235 5.0 11.0 0.00 0.00 0.00 88 1010.0
20260901085035 53 249 0.0 7.0 0.00 0.00 0.00 88 1009.9
20260901084538 53 221 2.0 7.0 0.00 0.00 0.00 88 1009.8
20260901083535 53 237 1.0 6.0 0.00 0.00 0.00 88 1009.6
20260901083034 53 234 3.0 6.0 0.00 0.00 0.00 88 1009.6
20260901082532 53 243 2.0 6.0 0.00 0.00 0.00 88 1009.6
20260901082030 53 278 2.0 5.0 0.00 0.00 0.00 87 1009.5
20260901081531 53 230 1.0 6.0 0.00 0.00 0.00 87 1009.5
20260901081030 53 253 2.0 8.0 0.00 0.00 0.00 87 1009.3
20260901080530 53 233 3.0 8.0 0.00 0.00 0.00 87 1009.2
20260901080028 53 226 2.0 5.0 0.00 0.00 0.00 87 1009.2
20260901075529 53 208 1.0 5.0 0.00 0.00 0.00 87 1009.1
20260901075028 53 220 2.0 6.0 0.00 0.00 0.00 87 1009.1
20260901074528 53 246 0.0 5.0 0.00 0.00 0.00 87 1009.1
20260901073526 53 228 1.0 5.0 0.00 0.00 0.00 86 1009.1
20260901073025 53 237 1.0 4.0 0.00 0.00 0.00 86 1009.1
20260901072528 53 257 0.0 4.0 0.00 0.00 0.00 86 1009.1
20260901072024 54 238 0.0 4.0 0.00 0.00 0.00 85 1009.0
20260901071524 54 191 0.0 6.0 0.00 0.00 0.00 85 1009.0
20260901071022 54 224 0.0 6.0 0.00 0.00 0.00 85 1009.0
20260901070521 54 236 1.0 5.0 0.00 0.00 0.00 84 1008.9
20260901070025 54 219 1.0 7.0 0.00 0.00 0.00 84 1008.9
20260901065519 55 218 1.0 7.0 0.00 0.00 0.00 84 1008.7
20260901065020 55 242 1.0 6.0 0.00 0.00 0.00 83 1008.6
20260901064524 55 256 2.0 7.0 0.00 0.00 0.00 83 1008.5
20260901063514 56 280 3.0 8.0 0.00 0.00 0.00 82 1008.4
20260901063014 56 257 3.0 12.0 0.00 0.00 0.00 82 1008.3
20260901062512 56 255 3.0 12.0 0.00 0.00 0.00 82 1008.3
20260901062015 56 257 4.0 8.0 0.00 0.00 0.00 82 1008.3
20260901061511 56 241 3.0 7.0 0.00 0.00 0.00 82 1008.3
20260901061009 56 239 3.0 7.0 0.00 0.00 0.00 81 1008.3
20260901060509 56 218 2.0 10.0 0.00 0.00 0.00 82 1008.3
20260901060007 56 261 2.0 10.0 0.00 0.00 0.00 82 1008.3
20260901055507 57 226 4.0 9.0 0.00 0.00 0.00 82 1008.2
20260901055008 57 251 2.0 8.0 0.00 0.00 0.00 82 1008.2
20260901054505 57 278 3.0 8.0 0.00 0.00 0.00 82 1008.2
20260901053506 57 259 1.0 5.0 0.00 0.00 0.00 81 1008.0
20260901053004 57 249 2.0 6.0 0.00 0.00 0.00 81 1007.9
20260901052503 57 289 2.0 6.0 0.00 0.00 0.00 81 1007.9
20260901052002 57 264 1.0 7.0 0.00 0.00 0.00 81 1007.9
20260901051502 57 250 2.0 7.0 0.00 0.00 0.00 81 1007.9
20260901051001 57 293 1.0 6.0 0.00 0.00 0.00 81 1007.9
20260901050501 57 285 2.0 6.0 0.00 0.00 0.00 81 1007.8
20260901050100 57 291 1.0 5.0 0.00 0.00 0.00 81 1007.7
20260901050001 57 295 2.0 5.0 0.00 0.00 0.00 81 1007.7
20260901045601 57 233 2.0 5.0 0.00 0.00 0.00 81 1007.7
20260901045059 57 280 2.0 5.0 0.00 0.00 0.00 80 1007.7
20260901044559 57 269 0.0 7.0 0.00 0.00 0.00 80 1007.6
20260901043557 57 261 1.0 8.0 0.00 0.00 0.00 80 1007.5
20260901043057 57 286 2.0 8.0 0.00 0.00 0.00 80 1007.4
20260901042556 57 289 1.0 9.0 0.00 0.00 0.00 80 1007.3
20260901042055 57 302 3.0 9.0 0.00 0.00 0.00 80 1007.3
20260901041614 57 335 4.0 8.0 0.00 0.00 0.00 80 1007.2
20260901041054 57 295 1.0 6.0 0.00 0.00 0.00 80 1007.2
20260901040553 57 265 0.0 7.0 0.00 0.00 0.00 80 1007.1
20260901040104 57 264 2.0 7.0 0.00 0.00 0.00 80 1007.0
20260901035556 57 23 3.0 6.0 0.00 0.00 0.00 81 1007.1
20260901035052 57 245 0.0 6.0 0.00 0.00 0.00 81 1007.1
20260901034551 57 309 0.0 6.0 0.00 0.00 0.00 81 1007.1
20260901033553 57 13 0.0 3.0 0.00 0.00 0.00 81 1006.9
20260901033052 57 270 0.0 6.0 0.00 0.00 0.00 80 1006.9
20260901032551 57 276 2.0 7.0 0.00 0.00 0.00 80 1006.9
20260901032051 58 255 2.0 7.0 0.00 0.00 0.00 80 1006.9
20260901031553 58 254 1.0 7.0 0.00 0.00 0.00 80 1006.9
20260901031050 58 297 2.0 7.0 0.00 0.00 0.00 80 1006.8
20260901030549 58 19 1.0 6.0 0.00 0.00 0.00 79 1006.7
20260901030049 58 60 2.0 9.0 0.00 0.00 0.00 79 1006.6
20260901025548 58 296 1.0 9.0 0.00 0.00 0.00 79 1006.6
20260901025049 58 340 2.0 10.0 0.00 0.00 0.00 78 1006.5
20260901024550 58 25 3.0 10.0 0.00 0.00 0.00 78 1006.4
20260901023546 58 286 3.0 9.0 0.00 0.00 0.00 79 1006.4
20260901023046 58 289 3.0 9.0 0.00 0.00 0.00 80 1006.3
20260901022545 58 335 1.0 7.0 0.00 0.00 0.00 81 1006.2
20260901022045 58 80 0.0 8.0 0.00 0.00 0.00 81 1006.2
20260901021550 58 16 0.0 6.0 0.00 0.00 0.00 81 1006.2
20260901021045 58 77 1.0 11.0 0.00 0.00 0.00 82 1006.2
20260901020544 58 235 1.0 11.0 0.00 0.00 0.00 82 1006.2
20260901020045 58 37 3.0 10.0 0.00 0.00 0.00 82 1006.1
20260901015545 58 6 4.0 10.0 0.00 0.00 0.00 82 1006.1
20260901015044 58 351 3.0 10.0 0.00 0.00 0.00 82 1006.1
20260901014542 58 26 1.0 6.0 0.00 0.00 0.00 82 1006.1
20260901013543 58 47 2.0 13.0 0.00 0.00 0.00 82 1006.0
20260901013044 58 359 4.0 13.0 0.00 0.00 0.00 83 1005.9
20260901012541 59 47 1.0 7.0 0.00 0.00 0.00 83 1005.9
20260901012040 59 33 2.0 8.0 0.00 0.00 0.00 83 1005.8
20260901011542 59 45 1.0 7.0 0.00 0.00 0.00 83 1005.8
20260901011040 59 26 2.0 10.0 0.00 0.00 0.00 83 1005.7
20260901010540 59 345 5.0 10.0 0.00 0.00 0.00 83 1005.7
20260901010043 59 330 2.0 10.0 0.00 0.00 0.00 83 1005.7
20260901005540 59 58 2.0 10.0 0.00 0.00 0.00 84 1005.6
20260901005039 59 12 3.0 12.0 0.00 0.00 0.00 84 1005.5
20260901004549 59 42 7.0 12.0 0.00 0.00 0.00 84 1005.5
20260901003542 59 43 3.0 13.0 0.00 0.00 0.00 84 1005.4
20260901003038 59 10 2.0 13.0 0.00 0.00 0.00 84 1005.5
20260901002540 59 29 5.0 13.0 0.00 0.00 0.00 84 1005.3
20260901002037 59 20 5.0 12.0 0.00 0.00 0.00 84 1005.3
20260901001536 60 14 5.0 8.0 0.00 0.00 0.00 85 1005.2
20260901001039 60 43 2.0 12.0 0.00 0.00 0.00 85 1005.1
20260901000534 60 76 5.0 12.0 0.00 0.00 0.00 85 1005.1
20260901000035 60 326 2.0 9.0 0.00 0.00 0.00 86 1005.1
20260831235536 60 350 4.0 9.0 0.00 0.00 0.00 87 1005.1
20260831235031 60 286 4.0 9.0 0.00 0.00 0.00 88 1004.8
20260831234533 61 23 3.0 11.0 0.00 0.00 0.00 87 1004.7
20260831233529 61 353 5.0 14.0 0.00 0.00 0.00 86 1004.6
20260831233026 62 13 2.0 14.0 0.00 0.00 0.00 86 1004.5
20260831232530 62 335 3.0 8.0 0.00 0.00 0.00 85 1004.4
20260831232030 62 4 1.0 9.0 0.00 0.00 0.00 85 1004.3
20260831231531 62 28 0.0 9.0 0.00 0.00 0.00 85 1004.2
20260831231025 62 32 2.0 8.0 0.00 0.00 0.00 84 1004.1
20260831230524 63 205 1.0 7.0 0.00 0.00 0.00 84 1004.1
20260831230035 63 34 3.0 8.0 0.00 0.00 0.00 83 1004.0
20260831225524 64 15 1.0 8.0 0.00 0.00 0.00 82 1003.9
20260831225024 64 274 3.0 10.0 0.00 0.00 0.00 82 1003.7
20260831224524 64 253 5.0 10.0 0.00 0.00 0.00 81 1003.6
20260831223526 64 242 3.0 7.0 0.00 0.00 0.00 81 1003.2
20260831223025 64 221 4.0 7.0 0.00 0.00 0.00 81 1003.0
20260831222525 64 251 2.0 7.0 0.00 0.00 0.00 80 1003.0
20260831222025 64 249 2.0 7.0 0.00 0.00 0.00 80 1002.9
20260831221530 64 251 1.0 6.0 0.00 0.00 0.00 79 1002.8
20260831221024 65 241 2.0 6.0 0.00 0.00 0.00 79 1002.7
20260831220526 65 257 2.0 6.0 0.00 0.00 0.00 79 1002.7
20260831220026 65 257 2.0 5.0 0.00 0.00 0.00 79 1002.7
20260831215524 65 236 2.0 6.0 0.00 0.00 0.00 79 1002.6
20260831215023 65 242 2.0 6.0 0.00 0.00 0.00 78 1002.6
20260831214526 65 232 2.0 6.0 0.00 0.00 0.00 78 1002.5
20260831213524 66 234 3.0 7.0 0.00 0.00 0.00 77 1002.6
20260831213025 66 241 2.0 6.0 0.00 0.00 0.00 77 1002.6
20260831212524 66 223 2.0 6.0 0.00 0.00 0.00 77 1002.6
20260831212027 66 258 2.0 6.0 0.00 0.00 0.00 77 1002.5
20260831211531 66 239 2.0 8.0 0.00 0.00 0.00 76 1002.4
20260831211024 66 231 3.0 8.0 0.00 0.00 0.00 76 1002.3
20260831210522 66 222 3.0 7.0 0.00 0.00 0.00 76 1002.3
20260831210022 66 243 2.0 6.0 0.00 0.00 0.00 75 1002.2
20260831205523 67 242 1.0 5.0 0.00 0.00 0.00 75 1002.1